RH
68 68 66 68 68 72 68 68 69 69 58 55 46 46 44 39 41 38 33 29 34 45 64 68 68 72 75 75 69 67 69 71 72 73 74 75 76 77 78 78 78 78 77
66 66 65 63 64 68 66 60 66 65 62 56 54 51 41 36 33 31 31 30 27 26 30 58 62 64 66 67 68 68 66 68 72 72 74 74 75 76 77 79 78 78 79
62 64 65 64 60 60 63 62 60 62 60 54 51 53 54 48 40 35 30 28 30 31 31 33 49 56 57 60 60 62 64 65 67 68 70 71 72 72 74 75 76 77 77
61 64 64 64 62 58 60 62 63 64 63 60 57 53 53 54 53 43 38 37 34 30 30 31 32 36 46 55 56 57 58 61 65 67 69 70 71 72 71 70 70 72 75
58 63 65 64 66 62 60 62 64 66 67 66 62 60 56 55 55 53 47 42 39 37 35 34 32 32 32 37 51 54 56 58 61 65 68 70 72 73 71 71 72 74 78
61 62 67 69 70 70 64 63 66 68 68 69 67 69 65 62 60 56 53 53 51 44 39 39 37 36 35 35 38 50 52 55 60 64 67 70 72 74 71 70 74 78 79
69 67 66 69 73 73 71 70 65 70 72 70 70 73 68 65 64 62 60 57 53 52 51 51 47 44 42 42 40 41 48 54 58 63 66 70 72 73 71 72 77 79 81
74 75 74 71 72 78 79 76 73 75 77 76 74 82 81 73 69 68 69 65 61 57 56 52 51 52 52 51 49 48 45 53 60 62 66 70 73 71 73 76 79 82 84
72 75 76 78 77 79 82 84 82 79 78 79 78 74 93 92 88 61 66 68 68 67 66 63 61 58 57 57 58 54 45 44 57 63 67 71 72 74 78 80 84 83 81
65 66 71 77 79 80 82 86 87 86 82 80 84 84 75 71 87 89 64 58 59 60 63 61 62 62 60 59 57 53 50 44 46 63 69 73 76 79 82 86 82 83 80
57 58 65 73 76 80 82 85 88 90 93 86 82 80 87 82 79 81 82 68 68 67 60 55 57 59 51 46 44 43 43 46 55 63 70 72 75 82 82 84 84 81 86
52 56 62 70 70 71 78 81 85 85 87 93 91 84 84 86 80 87 88 80 75 68 72 68 59 54 54 52 49 50 52 50 53 60 68 73 78 82 82 86 83 90 92
38 38 40 41 56 76 81 86 89 85 82 88 89 91 88 88 83 79 78 80 75 66 71 73 71 66 63 61 58 55 54 52 54 56 69 73 78 83 87 85 89 91 88
44 43 41 39 39 39 50 69 82 82 81 83 83 88 92 91 89 90 84 82 83 72 68 68 68 68 68 67 65 62 58 55 53 56 58 75 79 84 86 90 91 88 85
46 44 42 44 43 43 42 41 43 55 66 73 74 76 80 83 86 88 90 86 85 93 78 62 65 67 68 67 64 64 62 58 55 56 60 62 71 84 84 84 76 78 86
47 47 46 47 47 47 47 49 48 46 47 52 65 77 77 78 84 86 86 87 89 90 94 71 68 67 67 66 66 64 63 63 57 59 65 63 66 82 81 78 66 68 80
48 48 49 49 50 53 56 57 56 57 56 55 53 58 70 74 80 82 82 84 93 91 93 80 76 72 72 70 68 65 67 64 63 68 66 67 71 84 84 76 69 69 81
54 55 54 54 55 55 56 58 60 59 61 62 64 67 70 73 76 79 83 83 83 88 90 88 79 77 78 78 73 72 71 73 74 74 75 72 80 94 98 96 79 80 85
58 59 60 60 57 56 56 56 56 60 62 63 67 69 73 76 79 78 81 85 84 84 86 88 85 81 84 89 87 84 82 80 84 86 86 83 90 96 97 98 92 91 83
54 58 57 54 54 60 58 55 59 55 59 68 71 73 75 79 81 81 84 85 85 87 86 84 86 91 87 96 94 89 95 92 92 93 98 100 100 100 100 99 96 87 86
50 50 49 46 59 53 58 53 54 62 72 74 76 74 74 77 79 80 85 90 92 90 89 86 84 83 92 99 97 95 96 96 100 100 100 100 100 100 98 97 94 92 82
47 47 47 51 49 57 52 49 52 70 73 60 59 66 76 83 84 85 85 87 91 98 90 88 85 87 84 91 96 98 96 99 98 100 99 100 99 99 95 94 88 80 80
41 40 50 44 48 47 44 53 53 48 39 46 65 66 81 68 62 72 81 87 92 93 95 99 96 91 93 91 96 93 94 92 90 99 98 97 100 100 92 84 66 68 69
38 38 40 36 41 36 38 47 47 42 43 48 60 62 72 57 66 82 91 92 91 90 91 98 95 90 92 99 100 98 92 98 100 100 100 96 100 97 91 77 70 66 68
36 32 32 36 31 37 38 48 41 45 46 49 61 68 51 56 63 73 87 92 92 94 95 97 98 99 93 90 100 100 100 98 96 97 96 94 97 95 84 60 52 68 67
33 32 30 31 35 38 43 34 31 42 52 55 71 66 62 60 65 74 84 89 96 93 95 96 98 99 100 99 99 100 99 97 98 95 98 95 98 95 88 59 57 55 60
Wind_Speed
19 21 22 21 20 19 19 18 18 20 19 19 20 22 22 23 22 22 23 24 25 26 24 24 24 24 24 23 23 22 23 22 22 22 22 21 20 19 19 18 18 18 18
26 25 25 25 24 24 23 21 22 23 23 23 25 23 26 28 27 27 27 27 28 30 30 27 28 28 28 27 27 27 27 27 26 26 26 25 23 23 22 21 21 21 21
30 29 29 29 29 27 27 24 24 26 26 24 28 28 28 28 30 31 32 33 33 34 35 34 32 31 32 32 31 30 31 31 31 30 30 30 29 27 25 24 24 23 24
31 32 33 34 33 29 30 29 28 28 30 30 31 31 31 31 33 34 35 35 36 38 39 40 39 38 37 34 34 33 33 33 34 34 33 32 31 31 28 28 27 26 26
33 34 37 38 34 31 32 33 33 32 33 33 34 33 34 34 36 35 38 39 40 40 41 42 42 42 42 41 36 36 35 36 36 37 36 34 33 32 30 29 28 27 27
34 34 37 37 35 32 34 33 34 33 35 34 33 31 35 37 39 41 42 42 42 44 45 45 44 44 45 44 43 38 38 38 38 37 37 36 34 33 31 30 29 28 28
32 33 35 37 36 36 38 38 37 37 37 37 28 28 36 37 40 42 42 45 47 46 44 43 45 46 47 47 45 44 42 39 39 39 37 36 35 33 32 31 29 28 28
34 34 36 39 39 35 36 39 37 31 32 28 21 9 7 17 33 39 41 44 42 42 44 47 48 47 47 47 46 46 44 40 37 36 35 34 34 34 32 31 30 28 25
32 35 37 38 36 36 34 33 34 32 28 26 30 16 3 6 2 10 28 35 34 36 40 42 44 45 46 47 47 46 42 41 36 32 32 33 31 31 32 31 29 27 25
29 30 33 37 38 37 35 34 32 34 30 29 22 36 36 21 4 5 12 19 23 33 37 41 44 45 40 40 41 43 41 39 38 34 32 32 30 31 32 30 29 26 25
21 22 29 36 36 37 38 35 30 29 30 30 30 26 26 31 31 12 12 13 22 32 38 39 39 41 41 39 40 40 40 38 37 34 32 32 32 32 32 29 28 25 22
19 19 20 23 30 33 36 38 37 32 32 30 30 30 28 13 12 9 11 14 16 31 30 36 43 45 44 44 43 43 42 41 40 39 33 33 32 31 31 30 27 23 20
23 23 23 22 19 24 30 35 34 37 36 34 33 33 32 32 33 32 22 14 13 27 22 30 37 38 39 40 45 48 47 45 42 42 36 34 34 34 32 29 26 23 21
24 25 26 25 25 23 20 23 29 33 35 35 35 35 34 34 32 31 29 13 14 13 22 29 30 35 38 38 43 49 48 49 48 45 43 36 35 34 34 31 27 24 22
25 26 26 26 26 26 27 29 29 27 29 32 33 36 35 36 36 35 32 31 15 13 14 23 24 30 37 37 44 46 49 48 51 46 45 42 38 37 41 38 31 25 22
28 29 30 30 30 29 28 29 30 32 33 32 29 30 32 33 34 35 35 34 31 18 15 26 33 35 36 35 39 45 49 48 48 48 45 43 38 41 44 39 31 28 22
31 31 32 32 32 33 33 34 34 33 32 33 34 33 31 32 31 31 34 33 32 31 15 31 35 35 33 36 37 40 47 49 45 46 45 44 38 43 44 36 30 26 22
30 29 31 31 31 31 31 31 31 33 31 30 30 30 31 31 30 29 30 32 34 35 30 21 34 32 33 37 40 42 43 46 46 45 45 42 38 40 31 26 27 23 21
34 34 32 30 30 31 32 32 32 28 27 27 27 28 29 29 30 30 31 30 30 33 36 32 28 35 33 31 31 35 37 39 42 44 42 40 40 37 30 25 23 22 22
34 34 34 35 35 33 32 31 28 34 31 29 28 27 28 29 29 31 32 33 32 30 30 30 29 29 31 25 28 22 17 28 31 34 32 30 35 32 27 24 23 22 23
34 34 35 37 33 35 30 38 40 35 30 26 26 27 29 31 34 37 36 32 31 29 28 23 15 22 20 5 11 17 24 25 28 29 29 30 29 30 29 26 27 24 24
31 32 34 32 34 32 35 39 41 30 20 23 27 30 30 31 31 35 33 35 36 33 28 22 16 14 21 25 21 22 21 4 5 27 28 25 33 33 30 32 26 25 23
31 33 31 31 32 31 34 36 36 21 29 29 28 31 31 28 35 34 37 37 36 34 33 33 27 26 26 27 23 23 26 19 12 17 28 16 27 23 31 29 24 22 21
31 31 30 34 30 34 39 40 25 24 27 28 29 28 27 34 34 34 35 33 35 34 33 33 32 32 34 33 29 30 30 15 9 15 24 4 18 15 24 24 22 20 21
30 31 32 31 35 35 37 24 33 30 29 30 28 24 30 31 33 36 35 33 36 38 36 35 38 42 40 40 39 22 16 9 2 5 21 5 8 10 14 19 22 19 20
31 30 32 32 33 31 22 38 41 33 30 30 25 30 31 30 35 39 38 36 32 37 36 38 37 36 35 38 34 33 22 11 4 3 16 7 9 9 3 9 19 21 20
Wind_Direction
231 226 243 252 249 241 246 244 245 241 240 236 237 242 240 241 240 242 239 240 241 244 239 236 236 238 240 242 244 244 245 245 250 252 250 248 249 250 251 251 256 261 264
234 236 242 244 245 241 246 247 241 243 249 245 240 248 242 242 242 243 242 243 246 247 248 242 242 242 242 243 244 245 246 247 245 248 252 254 253 254 255 257 257 259 262
236 238 241 243 243 240 244 245 241 243 247 246 245 246 247 248 249 250 249 248 247 250 253 250 245 244 244 245 246 246 248 248 249 247 249 249 251 252 253 256 259 261 263
241 240 241 243 244 242 242 243 242 242 245 244 246 247 249 251 252 252 253 254 254 253 253 254 253 252 248 247 248 249 250 249 250 250 248 248 251 252 255 258 258 260 263
243 242 245 248 248 244 241 242 243 242 245 246 248 253 252 253 253 253 253 253 254 254 254 258 257 256 257 254 251 252 251 251 250 250 250 249 249 251 254 256 258 260 261
249 248 250 254 255 251 250 248 248 249 249 250 250 250 255 256 257 257 258 258 255 255 256 258 259 257 257 257 257 252 252 252 253 252 252 250 249 250 254 255 256 259 261
258 255 254 256 255 252 252 250 249 250 250 248 251 256 257 258 259 257 259 260 256 254 254 255 257 258 260 259 259 259 255 255 254 254 253 252 249 250 253 254 254 257 263
262 259 255 254 253 248 247 249 245 243 248 246 237 250 270 273 260 256 254 256 256 255 254 256 256 256 259 262 264 265 262 257 256 253 252 249 244 246 248 250 252 255 256
268 264 262 258 253 250 246 246 245 240 246 249 236 226 235 236 332 263 246 246 249 250 253 255 256 259 260 261 264 265 262 260 255 248 247 245 240 241 242 244 246 246 250
281 275 268 259 257 254 251 248 247 245 239 243 244 233 238 251 239 297 268 260 259 256 252 255 256 256 253 256 258 262 262 260 256 249 243 241 238 239 241 241 238 244 249
310 304 287 268 259 256 255 254 249 247 242 241 240 241 237 245 255 255 269 278 269 265 264 261 257 252 254 255 255 256 255 253 255 251 243 242 240 240 241 235 238 243 243
347 346 341 297 277 273 260 258 254 257 250 246 246 246 241 237 244 243 254 257 261 270 265 264 260 256 256 252 250 250 255 253 253 251 243 242 238 239 238 235 236 232 235
1 357 350 345 333 297 283 270 263 264 264 257 253 249 248 245 251 255 252 259 267 268 265 265 260 256 252 251 253 251 254 254 251 250 241 240 239 235 233 232 225 225 230
4 359 355 351 346 339 326 302 284 277 275 271 267 261 254 253 250 251 254 264 271 268 262 262 265 259 253 248 250 256 252 252 250 250 246 236 234 230 227 221 219 221 228
350 343 341 338 335 332 329 327 321 309 298 290 284 278 272 265 260 257 253 251 255 269 262 262 265 262 257 250 252 251 251 251 252 249 243 241 233 226 227 225 228 226 223
348 344 341 338 335 331 324 320 313 309 308 304 299 295 288 281 276 271 262 254 248 249 266 259 261 256 257 255 254 251 251 249 249 249 244 241 238 229 227 227 229 231 225
341 337 334 332 331 328 326 322 318 312 304 298 299 295 291 290 284 276 273 266 255 246 251 263 257 261 257 256 255 257 252 249 244 250 243 239 238 231 228 228 228 229 224
336 331 329 326 324 321 319 316 312 309 305 303 302 302 296 295 291 290 285 278 269 260 258 262 262 260 252 251 254 252 251 246 241 241 243 238 229 218 215 222 225 217 216
334 331 328 325 323 319 316 315 312 313 322 313 308 304 299 297 293 291 287 285 282 278 269 264 265 261 255 247 241 243 244 242 239 236 232 221 215 213 215 218 218 216 216
330 329 329 326 323 321 321 317 325 322 317 311 312 309 305 298 294 295 294 290 287 286 282 277 271 263 252 234 225 223 220 229 225 230 221 217 204 205 209 211 217 217 219
329 328 325 323 324 319 318 321 320 320 315 323 326 320 312 307 306 303 293 287 285 286 284 281 277 278 268 223 209 225 222 223 222 215 211 211 203 202 206 211 213 213 216
325 322 318 320 316 314 317 316 320 324 330 329 326 322 316 313 314 310 311 313 306 289 285 284 280 277 278 269 235 216 225 170 223 213 200 195 203 199 211 213 208 220 217
321 317 311 318 308 312 310 312 320 327 335 329 322 322 315 321 318 313 315 312 311 305 302 293 285 283 280 276 251 233 225 218 219 185 194 197 194 194 213 223 219 218 218
317 316 316 314 313 312 313 315 333 336 332 318 312 315 312 314 312 314 313 312 308 305 303 296 286 286 287 275 268 248 234 207 143 160 179 178 175 190 214 221 217 220 218
316 317 315 314 311 308 313 339 347 338 325 317 308 309 315 309 311 317 315 309 306 303 300 295 294 297 299 294 276 228 161 166 164 174 180 134 156 146 195 212 214 216 223
315 315 312 310 310 311 336 339 335 324 319 316 312 316 316 312 312 316 316 308 301 301 302 302 301 296 292 288 285 237 208 202 144 142 189 122 145 152 158 209 217 222 223